When you browse on this site, cookies collect data to enhance your experience and personalize the content and advertising you see.
Visit our Privacy Policy to learn more. By continuing to use the site, you agree to this use of cookies and data.
  • In Czech Republic
  • List of Countries
  • For 7 days
  • Water Temperature
  • Weather Map
  • Weather Widgets
  • user-avatar
    Login

    Hourly Weather San Juan

    Today, 21 January, Tuesday

    Time Temperature Precipitation Wind Pressure Humidity
    00:00 +32°C° 0.8 mm 7 mps 704 mmHg 54%
    01:00 +28°C° 0.8 mm 8 mps 704 mmHg 63%
    02:00 +28°C° 0.2 mm 7 mps 704 mmHg 62%
    03:00 +28°C° 0.2 mm 6 mps 704 mmHg 62%
    04:00 +28°C° 0.2 mm 5 mps 705 mmHg 62%
    05:00 +28°C° 0.1 mm 5 mps 705 mmHg 60%
    06:00 +28°C° 0.1 mm 5 mps 705 mmHg 57%
    07:00 +29°C° 0.1 mm 5 mps 706 mmHg 55%
    08:00 +30°C° 0 mm 5 mps 706 mmHg 51%
    09:00 +32°C° 0 mm 5 mps 705 mmHg 48%
    10:00 +34°C° 0 mm 4 mps 705 mmHg 44%
    11:00 +35°C° 0 mm 5 mps 705 mmHg 41%
    12:00 +36°C° 0 mm 5 mps 704 mmHg 38%
    13:00 +37°C° 0 mm 5 mps 704 mmHg 35%
    14:00 +39°C° 0 mm 5 mps 703 mmHg 34%
    15:00 +39°C° 0 mm 5 mps 703 mmHg 33%
    16:00 +39°C° 0 mm 5 mps 703 mmHg 33%
    17:00 +39°C° 0.1 mm 5 mps 703 mmHg 34%
    18:00 +37°C° 0.1 mm 4 mps 703 mmHg 36%
    19:00 +36°C° 0.1 mm 4 mps 704 mmHg 38%
    20:00 +35°C° 0.4 mm 4 mps 704 mmHg 41%
    21:00 +35°C° 0.4 mm 3 mps 705 mmHg 44%
    22:00 +34°C° 0.4 mm 3 mps 705 mmHg 47%
    23:00 +33°C° 0.4 mm 5 mps 705 mmHg 50%

    Tomorrow, 22 January, Wednesday

    Time Temperature Precipitation Wind Pressure Humidity
    00:00 +32°C° 0.4 mm 8 mps 705 mmHg 52%
    01:00 +31°C° 0.4 mm 10 mps 705 mmHg 54%
    02:00 +29°C° 0.4 mm 8 mps 705 mmHg 56%
    03:00 +29°C° 0.4 mm 6 mps 705 mmHg 59%
    04:00 +28°C° 0.4 mm 3 mps 706 mmHg 62%
    05:00 +29°C° 0 mm 4 mps 706 mmHg 59%
    06:00 +29°C° 0 mm 4 mps 706 mmHg 55%
    07:00 +30°C° 0 mm 4 mps 707 mmHg 52%
    08:00 +32°C° 0 mm 4 mps 707 mmHg 48%
    09:00 +33°C° 0 mm 3 mps 707 mmHg 44%
    10:00 +35°C° 0 mm 3 mps 707 mmHg 40%
    11:00 +36°C° 0 mm 3 mps 706 mmHg 37%
    12:00 +36°C° 0 mm 2 mps 706 mmHg 34%
    13:00 +37°C° 0 mm 2 mps 705 mmHg 32%
    14:00 +38°C° 0 mm 2 mps 705 mmHg 30%
    15:00 +38°C° 0 mm 2 mps 704 mmHg 29%
    16:00 +39°C° 0 mm 2 mps 704 mmHg 28%
    17:00 +38°C° 0 mm 2 mps 704 mmHg 29%
    18:00 +38°C° 0 mm 2 mps 704 mmHg 30%
    19:00 +37°C° 0 mm 3 mps 704 mmHg 31%
    20:00 +37°C° 0 mm 3 mps 705 mmHg 34%
    21:00 +36°C° 0 mm 4 mps 705 mmHg 36%
    22:00 +36°C° 0 mm 5 mps 705 mmHg 39%
    23:00 +35°C° 0 mm 6 mps 705 mmHg 40%

    Day after tomorrow, 23 January, Thursday

    Time Temperature Precipitation Wind Pressure Humidity
    00:00 +34°C° 0 mm 7 mps 705 mmHg 41%
    01:00 +34°C° 0 mm 7 mps 704 mmHg 42%
    02:00 +33°C° 0 mm 7 mps 704 mmHg 46%
    03:00 +32°C° 0 mm 7 mps 704 mmHg 49%
    04:00 +30°C° 0 mm 6 mps 704 mmHg 53%
    05:00 +32°C° 0 mm 6 mps 704 mmHg 51%
    06:00 +32°C° 0 mm 6 mps 705 mmHg 49%
    07:00 +33°C° 0 mm 6 mps 705 mmHg 48%
    08:00 +35°C° 0 mm 6 mps 705 mmHg 43%
    09:00 +36°C° 0 mm 6 mps 705 mmHg 38%
    10:00 +39°C° 0 mm 6 mps 705 mmHg 34%
    11:00 +40°C° 0 mm 6 mps 704 mmHg 31%
    12:00 +40°C° 0 mm 6 mps 704 mmHg 29%
    13:00 +41°C° 0 mm 6 mps 704 mmHg 26%
    14:00 +41°C° 0 mm 6 mps 703 mmHg 25%
    15:00 +42°C° 0 mm 5 mps 702 mmHg 24%
    16:00 +42°C° 0 mm 5 mps 702 mmHg 23%
    17:00 +41°C° 0 mm 5 mps 702 mmHg 26%
    18:00 +39°C° 0 mm 6 mps 703 mmHg 28%
    19:00 +38°C° 0 mm 6 mps 703 mmHg 31%
    20:00 +38°C° 0 mm 6 mps 703 mmHg 32%
    21:00 +36°C° 0 mm 5 mps 704 mmHg 33%
    22:00 +36°C° 0 mm 5 mps 704 mmHg 34%
    23:00 +35°C° 0 mm 4 mps 704 mmHg 35%

    24 January, Friday

    Time Temperature Precipitation Wind Pressure Humidity
    00:00 +34°C° 0 mm 3 mps 704 mmHg 36%
    01:00 +34°C° 0 mm 3 mps 704 mmHg 38%
    02:00 +33°C° 0 mm 3 mps 705 mmHg 40%
    03:00 +33°C° 0 mm 3 mps 705 mmHg 42%
    04:00 +32°C° 0 mm 4 mps 705 mmHg 44%
    05:00 +32°C° 0 mm 5 mps 705 mmHg 43%
    06:00 +32°C° 0 mm 7 mps 706 mmHg 42%
    07:00 +32°C° 0 mm 8 mps 706 mmHg 41%
    08:00 +33°C° 0 mm 8 mps 706 mmHg 36%
    09:00 +34°C° 0 mm 8 mps 706 mmHg 31%
    10:00 +35°C° 0 mm 7 mps 706 mmHg 25%
    11:00 +36°C° 0 mm 7 mps 705 mmHg 24%
    12:00 +38°C° 0 mm 6 mps 705 mmHg 23%
    13:00 +39°C° 0 mm 5 mps 704 mmHg 23%
    14:00 +39°C° 0 mm 5 mps 704 mmHg 23%
    15:00 +38°C° 0 mm 4 mps 703 mmHg 23%
    16:00 +38°C° 0 mm 4 mps 703 mmHg 23%
    17:00 +38°C° 0 mm 4 mps 703 mmHg 24%
    18:00 +37°C° 0 mm 4 mps 704 mmHg 25%
    19:00 +37°C° 0 mm 4 mps 704 mmHg 26%
    20:00 +35°C° 0.4 mm 4 mps 705 mmHg 29%
    21:00 +34°C° 0.4 mm 3 mps 705 mmHg 32%
    22:00 +33°C° 0.4 mm 3 mps 705 mmHg 36%
    23:00 +32°C° 0.1 mm 2 mps 705 mmHg 37%

    25 January, Saturday

    Time Temperature Precipitation Wind Pressure Humidity
    00:00 +32°C° 0.1 mm 2 mps 705 mmHg 38%
    01:00 +32°C° 0.1 mm 1 mps 705 mmHg 39%
    02:00 +31°C° 0 mm 2 mps 705 mmHg 39%
    03:00 +31°C° 0 mm 2 mps 705 mmHg 39%
    04:00 +30°C° 0 mm 3 mps 705 mmHg 39%
    05:00 +32°C° 0 mm 4 mps 705 mmHg 35%
    06:00 +32°C° 0 mm 5 mps 706 mmHg 32%
    07:00 +33°C° 0 mm 6 mps 706 mmHg 28%
    08:00 +34°C° 0 mm 6 mps 706 mmHg 26%
    09:00 +35°C° 0 mm 5 mps 706 mmHg 25%
    10:00 +36°C° 0 mm 5 mps 706 mmHg 23%
    11:00 +37°C° 0.1 mm 4 mps 706 mmHg 22%
    12:00 +38°C° 0.1 mm 3 mps 705 mmHg 22%
    13:00 +39°C° 0.1 mm 3 mps 704 mmHg 21%
    14:00 +39°C° 0 mm 2 mps 704 mmHg 21%
    15:00 +39°C° 0 mm 2 mps 704 mmHg 20%
    16:00 +40°C° 0 mm 2 mps 703 mmHg 20%
    17:00 +39°C° 0.1 mm 2 mps 703 mmHg 21%
    18:00 +38°C° 0.1 mm 3 mps 704 mmHg 23%
    19:00 +37°C° 0.1 mm 3 mps 704 mmHg 25%
    20:00 +36°C° 0.3 mm 2 mps 704 mmHg 28%
    21:00 +35°C° 0.3 mm 2 mps 704 mmHg 31%
    22:00 +33°C° 0.3 mm 1 mps 705 mmHg 34%
    23:00 +33°C° 0.1 mm 1 mps 704 mmHg 36%

    26 January, Sunday

    Time Temperature Precipitation Wind Pressure Humidity
    00:00 +32°C° 0.1 mm 1 mps 704 mmHg 38%
    01:00 +32°C° 0.1 mm 1 mps 703 mmHg 39%
    02:00 +31°C° 0 mm 1 mps 703 mmHg 41%
    03:00 +31°C° 0 mm 2 mps 703 mmHg 42%
    04:00 +30°C° 0 mm 3 mps 703 mmHg 43%
    05:00 +30°C° 0 mm 4 mps 703 mmHg 41%
    06:00 +32°C° 0 mm 5 mps 703 mmHg 40%
    07:00 +32°C° 0 mm 6 mps 704 mmHg 38%
    08:00 +33°C° 0 mm 6 mps 704 mmHg 35%
    09:00 +35°C° 0 mm 7 mps 704 mmHg 33%
    10:00 +37°C° 0 mm 8 mps 704 mmHg 30%
    11:00 +38°C° 0 mm 8 mps 704 mmHg 29%
    12:00 +38°C° 0 mm 8 mps 703 mmHg 27%
    13:00 +39°C° 0 mm 8 mps 703 mmHg 26%
    14:00 +39°C° 0 mm 8 mps 702 mmHg 25%
    15:00 +40°C° 0 mm 8 mps 702 mmHg 25%
    16:00 +40°C° 0 mm 8 mps 701 mmHg 24%
    17:00 +38°C° 0.6 mm 6 mps 702 mmHg 26%
    18:00 +36°C° 0.6 mm 5 mps 702 mmHg 29%
    19:00 +35°C° 0.6 mm 4 mps 703 mmHg 31%
    20:00 +34°C° 0.2 mm 5 mps 703 mmHg 35%
    21:00 +33°C° 0.2 mm 5 mps 704 mmHg 39%
    22:00 +32°C° 0.2 mm 6 mps 705 mmHg 43%
    23:00 +32°C° 0.1 mm 6 mps 705 mmHg 44%
    Show more